{"data":{"norad_id":54659,"intl_designator":"2022-166T","name":"ONEWEB-0593","alt_names":[],"object_type":"PAYLOAD","status":"ACTIVE","operator":null,"country":"UK","launch_date":"2022-12-08","launch_site_code":"AFETR","launch_vehicle":null,"mission":null,"orbit_class":"UNKNOWN","rcs_meters":null,"size_class":null,"mass_kg":null,"dimensions":null,"purposes":["comms"],"wikipedia_slug":null,"has_3d_model":false,"image_url":null,"decayed_at":null,"tle_current":{"epoch":"2026-05-25T00:29:11.042880Z","epoch_age_seconds":73072,"freshness":"FRESH","line1":"1 54659U 22166T   26145.02026670 -.00000007  00000+0 -47578-4 0  9990","line2":"2 54659  87.9253 248.5852 0002071  95.9562 264.1808 13.21826135168483","mean_motion":13.21826135,"eccentricity":0.0002071,"inclination_deg":87.9253,"raan_deg":248.5852,"arg_perigee_deg":95.9562,"mean_anomaly_deg":264.1808,"bstar":-4.7578e-5,"rev_number":16848,"period_min":108.94019734297,"perigee_km":1176.1880291165,"apogee_km":1179.317678694,"semimajor_km":7555.8898539052,"source":"CELESTRAK","updated_at":"2026-05-25T13:38:22.632914Z"}}}